| time (UTC) | temp F | wind direction | speed knots | gust knots | rain 1hr in | rain 24hr in | rain mn in | humidity % | barometer mb |
| 20260506120210 | 62 | 43 | 2.6 | 0.0 | 0.00 | 0.00 | 0.00 | 50 | 1005.6 |
| 20260506113217 | 63 | 274 | 5.2 | 0.0 | 0.00 | 0.00 | 0.00 | 49 | 1005.8 |
| 20260506110210 | 62 | 13 | 7.0 | 0.0 | 0.00 | 0.00 | 0.00 | 50 | 1006.0 |
| 20260506100213 | 60 | 342 | 3.5 | 0.0 | 0.00 | 0.00 | 0.00 | 51 | 1006.3 |
| 20260506093211 | 60 | 270 | 3.5 | 0.0 | 0.00 | 0.00 | 0.00 | 49 | 1006.7 |
| 20260506090211 | 61 | 221 | 5.2 | 0.0 | 0.00 | 0.00 | 0.00 | 48 | 1006.8 |
| 20260506083211 | 59 | 287 | 4.3 | 0.0 | 0.00 | 0.00 | 0.00 | 50 | 1006.7 |
| 20260506080212 | 56 | 295 | 0.0 | 0.0 | 0.00 | 0.00 | 0.00 | 53 | 1007.0 |
| 20260506073211 | 55 | 308 | 2.6 | 0.0 | 0.00 | 0.00 | 0.00 | 57 | 1007.1 |
| 20260506070212 | 55 | 254 | 5.2 | 0.0 | 0.00 | 0.00 | 0.00 | 61 | 1007.2 |
| 20260506060210 | 50 | 138 | 2.6 | 0.0 | 0.00 | 0.00 | 0.00 | 72 | 1007.1 |
| 20260506050211 | 47 | 114 | 0.0 | 0.0 | 0.00 | 0.00 | 0.00 | 69 | 1007.2 |
| 20260506043211 | 47 | 121 | 2.6 | 0.0 | 0.00 | 0.00 | 0.00 | 67 | 1007.6 |
| 20260506040211 | 47 | 145 | 0.0 | 0.0 | 0.00 | 0.00 | 0.00 | 67 | 1007.7 |
| 20260506033211 | 48 | 145 | 0.0 | 0.0 | 0.00 | 0.00 | 0.00 | 67 | 1008.1 |
| 20260506030212 | 49 | 172 | 1.7 | 0.0 | 0.00 | 0.00 | 0.00 | 67 | 1008.4 |
| 20260506023211 | 49 | 262 | 0.0 | 0.0 | 0.00 | 0.00 | 0.00 | 67 | 1008.4 |
| 20260506020212 | 49 | 213 | 0.0 | 0.0 | 0.00 | 0.00 | 0.00 | 66 | 1008.7 |
| 20260506013211 | 49 | 219 | 3.5 | 0.0 | 0.00 | 0.00 | 0.00 | 66 | 1008.6 |
| 20260506010213 | 50 | 197 | 0.0 | 0.0 | 0.00 | 0.00 | 0.00 | 66 | 1009.3 |
| 20260506003209 | 50 | 197 | 0.9 | 0.0 | 0.00 | 0.00 | 0.00 | 66 | 1009.0 |
| 20260506000211 | 49 | 217 | 3.5 | 0.0 | 0.00 | 0.00 | 0.00 | 65 | 1009.2 |
| 20260505233209 | 49 | 215 | 0.0 | 0.0 | 0.00 | 0.00 | 0.00 | 65 | 1009.3 |
| 20260505230209 | 50 | 236 | 0.0 | 0.0 | 0.00 | 0.00 | 0.00 | 64 | 1009.6 |
| 20260505223210 | 50 | 240 | 0.9 | 0.0 | 0.00 | 0.00 | 0.00 | 62 | 1009.6 |
| 20260505220209 | 51 | 240 | 3.5 | 0.0 | 0.00 | 0.00 | 0.00 | 61 | 1009.5 |
| 20260505213211 | 53 | 246 | 0.9 | 0.0 | 0.00 | 0.00 | 0.02 | 61 | 1009.6 |
| 20260505210215 | 54 | 167 | 7.8 | 0.0 | 0.00 | 0.00 | 0.02 | 59 | 1009.4 |
| 20260505203209 | 54 | 201 | 6.1 | 0.0 | 0.00 | 0.00 | 0.02 | 59 | 1009.4 |
| 20260505200210 | 55 | 198 | 11.3 | 0.0 | 0.00 | 0.00 | 0.02 | 59 | 1009.6 |
| 20260505193209 | 56 | 205 | 7.0 | 0.0 | 0.00 | 0.00 | 0.02 | 58 | 1009.6 |
| 20260505190215 | 59 | 222 | 16.5 | 0.0 | 0.00 | 0.00 | 0.00 | 54 | 1008.9 |
| 20260505183212 | 61 | 231 | 10.4 | 0.0 | 0.00 | 0.00 | 0.00 | 50 | 1008.2 |
| 20260505180211 | 62 | 272 | 7.0 | 0.0 | 0.00 | 0.00 | 0.00 | 49 | 1007.8 |
| 20260505173210 | 63 | 251 | 7.8 | 0.0 | 0.00 | 0.00 | 0.00 | 46 | 1007.5 |
| 20260505170210 | 64 | 309 | 7.8 | 0.0 | 0.00 | 0.00 | 0.00 | 46 | 1007.3 |
| 20260505163211 | 65 | 225 | 2.6 | 0.0 | 0.00 | 0.00 | 0.00 | 43 | 1007.0 |
| 20260505153210 | 64 | 230 | 7.0 | 0.0 | 0.00 | 0.00 | 0.00 | 44 | 1007.6 |
| 20260505150216 | 64 | 293 | 4.3 | 0.0 | 0.00 | 0.00 | 0.00 | 43 | 1007.5 |
| 20260505140210 | 63 | 303 | 9.6 | 0.0 | 0.00 | 0.00 | 0.00 | 47 | 1007.5 |
| 20260505130210 | 62 | 39 | 4.3 | 0.0 | 0.00 | 0.00 | 0.00 | 49 | 1007.7 |
| 20260505123210 | 61 | 273 | 3.5 | 0.0 | 0.00 | 0.00 | 0.00 | 46 | 1008.4 |